Location: Bois Neuf
(42.7667°N, 0.6333°E)
Time: 03:11:11
(UTC+00:00)

Cosmos 540 Rocket - Pass Details

Date: 07 June 2020
Orbit: 741 x 753 km, 74.1° (Epoch: 09 July)

Event Time Altitude Azimuth Distance (km) Brightness Sun altitude
Exits shadow 00:41:04 66° 172° (S) 815 3.3 -23.6°
Maximum altitude 00:41:45 79° 108° (ESE) 763 3.4 -23.6°
Drops below altitude 10° 00:46:52 10° 23° (NNE) 2,263 7.0 -23.4°
Sets 00:49:14 0° 22° (NNE) 3,190 8.1 -23.3°
